Weather History for Pittsburgh, PA

Change the Weather History Date:

Friday, May 16, 2014

  Actual Average Record
Temperature  
Mean Temperature 51 °F 60 °F  
Max Temperature 57 °F 71 °F 92 °F (1900)
Min Temperature 45 °F 49 °F 32 °F (1984)
Degree Days  
Heating Degree Days 14 6  
Month to date heating degree days 95 127  
Since 1 July heating degree days 5953 5603  
Cooling Degree Days 0 1  
Month to date cooling degree days 33 15  
Year to date cooling degree days 43 25  
Growing Degree Days 1 (Base 50)    
Moisture  
Dew Point 42 °F    
Average Humidity 72    
Maximum Humidity 96    
Minimum Humidity 47    
Precipitation  
Precipitation 0.14 in 0.13 in 1.18 in (1889)
Month to date precipitation 2.74 1.89  
Year to date precipitation 13.51 13.04  
Snow  
Snow 0.00 in 0.00 in T in (1893)
Month to date snowfall 0.0 0.0  
Since 1 July snowfall 63.4 41.4  
Snow Depth 0.00 in    
Sea Level Pressure  
Sea Level Pressure 29.97 in    
Wind  
Wind Speed 7 mph (West)    
Max Wind Speed 16 mph    
Max Gust Speed 20 mph    
Visibility 9 miles    
Events Rain    
T = Trace of Precipitation, MM = Missing Value Source: NWS Daily Summary

Daily Weather History Graph

Daily Weather History Graph

Search for Another Location

Airport:

Trip Planner

Search our weather history database for the weather conditions in past years. The results will help you decide how hot, cold, wet, or windy it might be!

Date:

Astronomy

May. 16, 2014 Rise Set
Actual Time 6:03 AM EDT 8:31 PM EDT
Civil Twilight 5:32 AM EDT 9:02 PM EDT
Nautical Twilight 4:53 AM EDT 9:41 PM EDT
Astronomical Twilight 4:11 AM EDT 10:24 PM EDT
Moon 10:36 PM EDT (5/16) 7:43 AM EDT (5/16)
Length of Visible Light 15h 30m
Length of Day
14h 28m
Waning Gibbous, 95% of the Moon is Illuminated
May 16
Waning Gibbous
May 21
Last Quarter
May 28
New
Jun 5
First Quarter
Jun 13
Full

Hourly Weather History & Observations

Time (EDT) Temp. Windchill Dew Point Humidity Pressure Visibility Wind Dir Wind Speed Gust Speed Precip Events Conditions
12:51 AM 51.1 °F - 50.0 °F 96% 29.99 in 4.0 mi SW 3.5 mph - 0.14 in Rain Light Rain
1:38 AM 51.1 °F - 48.9 °F 92% 29.94 in 6.0 mi WSW 4.6 mph - 0.08 in Rain Light Rain
1:51 AM 51.1 °F - 48.9 °F 92% 29.96 in 6.0 mi WSW 5.8 mph - 0.09 in   Overcast
2:51 AM 50.0 °F - 48.9 °F 96% 29.94 in 9.0 mi WSW 5.8 mph - 0.00 in   Overcast
3:51 AM 48.9 °F - 46.9 °F 93% 29.94 in 10.0 mi West 8.1 mph - N/A   Overcast
4:45 AM 48.2 °F - 44.6 °F 87% 29.93 in 10.0 mi West 6.9 mph - N/A   Overcast
4:51 AM 48.0 °F - 46.0 °F 93% 29.96 in 10.0 mi West 8.1 mph - N/A   Overcast
5:42 AM 46.9 °F - 43.0 °F 86% 29.93 in 10.0 mi West 5.8 mph - N/A   Mostly Cloudy
5:51 AM 46.0 °F 41.9 °F 43.0 °F 89% 29.95 in 10.0 mi West 8.1 mph - N/A   Mostly Cloudy
6:13 AM 46.0 °F 42.5 °F 43.0 °F 89% 29.93 in 10.0 mi WNW 6.9 mph - N/A   Overcast
6:51 AM 46.0 °F 42.5 °F 43.0 °F 89% 29.96 in 10.0 mi West 6.9 mph - N/A   Overcast
7:10 AM 46.0 °F 42.5 °F 43.0 °F 89% 29.94 in 10.0 mi West 6.9 mph - N/A   Overcast
7:51 AM 45.0 °F 38.5 °F 39.0 °F 80% 29.98 in 10.0 mi WNW 13.8 mph - N/A   Overcast
8:12 AM 45.0 °F 39.7 °F 39.9 °F 82% 29.96 in 10.0 mi WNW 10.4 mph - N/A   Overcast
8:51 AM 46.0 °F 41.0 °F 39.0 °F 76% 30.00 in 10.0 mi WNW 10.4 mph - N/A   Overcast
9:51 AM 46.9 °F - 37.9 °F 71% 30.00 in 10.0 mi NW 9.2 mph - N/A   Overcast
10:51 AM 46.9 °F - 39.0 °F 74% 29.99 in 10.0 mi Variable 6.9 mph - N/A   Overcast
11:51 AM 48.9 °F - 37.9 °F 66% 30.00 in 10.0 mi Calm Calm - N/A   Overcast
12:38 PM 50.0 °F - 37.9 °F 63% 29.97 in 10.0 mi West 8.1 mph - N/A   Overcast
12:51 PM 50.0 °F - 37.9 °F 63% 29.99 in 10.0 mi WSW 6.9 mph - N/A   Overcast
1:51 PM 51.1 °F - 37.0 °F 59% 29.99 in 10.0 mi WNW 5.8 mph - N/A   Overcast
2:51 PM 53.1 °F - 37.0 °F 55% 29.98 in 10.0 mi West 5.8 mph - N/A   Mostly Cloudy
3:51 PM 55.4 °F - 39.2 °F 54% 29.93 in 10.0 mi NW 11.5 mph 19.6 mph N/A   Mostly Cloudy
4:51 PM 55.4 °F - 37.4 °F 51% 29.93 in 10.0 mi Calm Calm - N/A   Mostly Cloudy
5:51 PM 55.9 °F - 37.9 °F 51% 29.97 in 10.0 mi NW 9.2 mph - N/A   Mostly Cloudy
6:51 PM 57.0 °F - 37.9 °F 49% 29.96 in 10.0 mi NNW 8.1 mph - N/A   Scattered Clouds
7:51 PM 55.0 °F - 37.9 °F 53% 29.98 in 10.0 mi North 9.2 mph - N/A   Scattered Clouds
8:51 PM 54.0 °F - 37.9 °F 55% 30.00 in 10.0 mi NNE 4.6 mph - N/A   Mostly Cloudy
9:51 PM 53.1 °F - 39.0 °F 59% 30.01 in 10.0 mi Calm Calm - N/A   Overcast
10:51 PM 48.9 °F - 45.0 °F 86% 30.03 in 5.0 mi SW 9.2 mph - 0.00 in Rain Light Rain
11:51 PM 48.0 °F - 46.0 °F 93% 30.03 in 8.0 mi West 4.6 mph - 0.05 in Rain Light Rain